Location: Wanzleben
(52.0609°N, 11.4408°E)
Time: 00:40:20
(UTC+00:00)

Cosmos 1937 Rocket - Pass Details

Date: 18 September 2020
Orbit: 747 x 779 km, 74.0° (Epoch: 23 October)

Event Time Altitude Azimuth Distance (km) Brightness Sun altitude
Rises 18:55:09 0° 213° (SSW) 3,234 6.9 -14.9°
Reaches altitude 10° 18:57:33 10° 216° (SW) 2,307 6.1 -15.2°
Maximum altitude 19:02:45 65° 298° (WNW) 844 3.9 -15.9°
Drops below altitude 10° 19:07:56 10° 21° (NNE) 2,300 6.0 -16.7°
Sets 19:10:20 0° 25° (NNE) 3,225 6.8 -17.0°
